Home   Weather   Petaluma   Past weeks
Flag for USA

Past Weather in Petaluma, California, USA — Yesterday and Last 2 Weeks

Now
58 °F

Low clouds.


Feels Like: 55 °F
Forecast: 79 / 53 °F
Wind: 14 mph from West

Location: Napa County Airport

Current Time: Jul 20, 2019 at 2:56:09 am

Latest Report: Jul 20, 2019 at 2:31 am


Visibility: 10 mi

Pressure: 29.91 "Hg

Humidity: 90%

Dew Point: 55 °F

Location of PetalumaLocation

Past Weather in Petaluma — Graph

°F

Petaluma Temperature Yesterday

Maximum temperature yesterday: 73 °F (at 1:54 pm)
Minimum temperature yesterday: 58 °F (at 2:54 am)
Average temperature yesterday: 64 °F

High & Low Weather Summary for the Past Weeks

 TemperatureHumidityPressure
High89 °F (Jul 16, 3:15 pm)100% (Jul 11, 4:54 am)30.07 "Hg (Jul 11, 4:54 am)
Low49 °F (Jul 9, 4:54 am)27% (Jul 16, 3:15 pm)29.77 "Hg (Jul 16, 5:54 pm)
Average65 °F75%29.92 "Hg
* Reported Jul 5 1:02 am — Jul 20 1:09 am, Petaluma. Weather by CustomWeather, © 2019

Note: Actual official high and low records may vary slightly from our data, if they occured in-between our weather recording intervals... More about our weather records

Advertising

Petaluma Weather History for the Previous 24 Hours

Scroll right to see more
 ConditionsComfort  
Time TempWeatherWind HumidityBarometerVisibility
1:09 am
Sat, Jul 20
58 °FOvercast.10 mph93%29.91 "Hg10 mi
11:54 pm
Fri, Jul 19
58 °FClear.10 mph90%29.87 "Hg10 mi
10:54 pm59 °FClear.8 mph87%29.87 "Hg10 mi
9:54 pm61 °FClear.12 mph83%29.86 "Hg10 mi
8:54 pm63 °FClear.8 mph78%29.84 "Hg10 mi
7:54 pm65 °FSunny.14 mph78%29.83 "Hg10 mi
6:54 pm65 °FSunny.18 mph76%29.83 "Hg10 mi
5:54 pm68 °FSunny.21 mph65%29.83 "Hg10 mi
4:54 pm70 °FSunny.20 mph61%29.84 "Hg10 mi
3:54 pm71 °FSunny.21 mph59%29.85 "Hg10 mi
2:54 pm71 °FSunny.20 mph61%29.87 "Hg10 mi
1:54 pm73 °FSunny.22 mph59%29.87 "Hg10 mi
12:54 pm72 °FSunny.14 mph61%29.87 "Hg10 mi
11:54 am70 °FScattered clouds.7 mph64%29.88 "Hg10 mi
10:54 am66 °FScattered clouds.12 mph70%29.88 "Hg10 mi
9:54 am64 °FPartly sunny.6 mph75%29.88 "Hg10 mi
8:54 am62 °FOvercast.5 mph80%29.88 "Hg10 mi
8:01 am61 °FOvercast.10 mph83%29.89 "Hg10 mi
6:54 am60 °FPartly sunny.10 mph83%29.85 "Hg10 mi
5:54 am58 °FOvercast.14 mph90%29.84 "Hg9 mi
4:54 am58 °FOvercast.15 mph90%29.84 "Hg10 mi
3:54 am58 °FMostly cloudy.13 mph90%29.84 "Hg10 mi
2:54 am58 °FOvercast.9 mph87%29.84 "Hg10 mi
Weather by CustomWeather, © 2019

See weather overview